This demonstration page uses our WeatherBlox Daily Observations layout. Learn more.

Left ArrowRight Arrow

34.16533, -84.80231

Hourly Observations for August 19, 2017

Temp ( °F °C ) Dew Point ( °F °C ) Humidity (%) Winds ( mph kmh ) Pressure ( in mb ) Visibility ( mi km ) Precip ( " mm )
12:53 am 00:53 Clear 70 21.1 69 20.6 97 97 Calm 29.96 1015 10 16 0.00 0.00
1:53 am 01:53 Clear 70 21.1 69 20.6 97 97 Calm 29.96 1015 10 16 0.00 0.00
2:53 am 02:53 Clear 67 19.4 67 19.4 100 100 Calm 29.96 1015 10 16 0.00 0.00
3:53 am 03:53 Clear 66 18.9 66 18.9 100 100 Calm 29.96 1015 10 16 0.00 0.00
4:53 am 04:53 Clear 65 18.3 65 18.3 100 100 Calm 29.96 1015 10 16 0.00 0.00
5:53 am 05:53 Clear 65 18.3 65 18.3 100 100 Calm 29.97 1015 10 16 0.00 0.00
6:53 am 06:53 Clear 64 17.8 64 17.8 100 100 Calm 29.98 1015 10 16 0.00 0.00
7:53 am 07:53 Sunny 66 18.9 66 18.9 100 100 Calm 29.98 1015 10 16 0.00 0.00
8:53 am 08:53 Sunny 70 21.1 68 20 93 93 Calm 29.99 1016 10 16 0.00 0.00
9:53 am 09:53 Sunny 76 24.4 70 21.1 82 82 Calm 30.00 1016 10 16 0.00 0.00
10:53 am 10:53 Sunny 78 25.6 70 21.1 76 76 S 5 7 30.01 1016 10 16 0.00 0.00
11:53 am 11:53 Sunny 83 28.3 68 20 61 61 undefined N/A 30.01 1016 10 16 0.00 0.00
12:53 pm 12:53 Sunny 87 30.6 68 20 53 53 VRB 6 9 30.01 1016 10 16 0.00 0.00
1:53 pm 13:53 Sunny 86 30 66 18.9 51 51 SW 3 6 29.98 1015 10 16 0.00 0.00
2:53 pm 14:53 Sunny 86 30 65 18.3 49 49 Calm 29.96 1015 10 16 0.00 0.00
3:53 pm 15:53 Sunny 88 31.1 65 18.3 46 46 Calm 29.95 1014 10 16 0.00 0.00
4:53 pm 16:53 Sunny 89 31.7 67 19.4 48 48 SSW 5 7 29.93 1014 10 16 0.00 0.00
5:53 pm 17:53 Sunny 88 31.1 67 19.4 50 50 S 6 9 29.94 1014 10 16 0.00 0.00
6:53 pm 18:53 Sunny 87 30.6 65 18.3 48 48 NNW 5 7 29.93 1014 10 16 0.00 0.00
7:53 pm 19:53 Sunny 79 26.1 74 23.3 85 85 Calm 29.94 1014 10 16 0.00 0.00
8:53 pm 20:53 Clear 73 22.8 70 21.1 90 90 Calm 29.96 1015 10 16 0.00 0.00
9:53 pm 21:53 Clear 72 22.2 69 20.6 91 91 Calm 29.98 1015 10 16 0.00 0.00
10:53 pm 22:53 Clear 71 21.7 69 20.6 94 94 Calm 30.00 1016 10 16 0.00 0.00
11:53 pm 23:53 Clear 69 20.6 69 20.6 100 100 Calm 30.00 1016 10 16 0.00 0.00

Powered by AerisWeather